Showing default

COSMOS 1579, 15085

Orbit data source: Space-Track

COSMOS 1579, 15085 is a payload satellite owned by VMF (CIS) in LEO that was launched on Fri, 29 Jun 1984 UTC via a TSIKLON-2 launch vehicle from the Tyuratam Missile And Space Complex (TTMTR). Payloads include a variety of satellites, spacecraft, and rockets equipped with specific instruments for various scientific and technological missions. These include communications satellites like Starlink; space stations such as the ISS; scientific satellites like the Hubble; Earth observation satellites from companies like Planet Labs, Umbra, and HawkEye 360; GPS; miniature CubeSats for education and research; and military/defense satellites.

Loading next visibility...
COSMOS 1579 details
Identifier
15085, 1984-069A
Orbit
LEO
Last TLE update10 hours ago
Origin
Flag of CISVMF (CIS)
ManufacturerKometa
MissionDefense Sigint
Bus & MotorUS-A REACTOR, Unknown motor
Mass4,300 kg wet, 1,154 kg dry
Launch date (UTC)
1984-06-29 (40 years ago)
Launch vehicle
TSIKLON-2
Launch site
Tyuratam Missile And Space Complex (TTMTR)
Object type
Payload
Rocket body
Debris
Shape & HBRCone + Cyl, 5.8 m
Radar Cross Section6.586 m², Large (>1 m²)

Expand to show TLE details & history

TLE from 10 hours ago
0 COSMOS 1579
1 15085U 84069A   24361.23531160 -.00000019  00000-0  59420-4 0  9998
2 15085  65.0515  39.6169 0058374 229.3829 130.2147 13.86174350 51214
Epoch: 2024-12-26T05:38Z
Definitive object data (Epoch: 2024-12-26T05:38:50.922Z)
Latitude-0.00004°
Longitude-140.31291°
Altitude971.74 km
Speed7.352 km/s
True Right ascension02h 38m 28s
True Declination0° 00' 00"
Sunlit
Object was in full shadow at TLE epoch
Visualization TLE readout
Latitude-28.37229°
Longitude-155.89306°
Altitude958.412 km
Speed7.369 km/s
Apparent Right ascension02h 18m 44s
Apparent Declination-34° 11' 10"
Sunlit
Object is in daylight
Visualization observer readout
Local Sidereal Time15:15:08
Azimuth67.412° ENE
Elevation-77.391°
Doppler factor1
Orbital elements
Apogee altitude983.393 km
Perigee altitude897.948 km
Semi-major axis7,318.807 km
Eccentricity0.0058374
Inclination65.0515°
RAAN39.6169°
Arg. of periapsis229.3829°
True anomaly130.7231°
Mean anomaly130.2147°
Eccentric anomaly130.46914°
Mean motion3.46643 °/min
BSTAR0.00005942
Orbital period103.85 mins
Loading maneuver chart data...

COSMOS 1579 Visibility forecast

Observer location: undefined°, undefined

Span
Click to sort rows by Start time (UTC) header in descending order
Start Az.
Max El. time (UTC)
Max El. Az.
Max El.
End time (UTC)
End Az.
11 mins2024-12-27 04:17:03.967Z200.26° SSW2024-12-27 04:22:03.967Z124.467° SE43.802°2024-12-27 04:28:03.967Z35.573° NE
8 mins2024-12-27 06:06:03.967Z274.531° WNW2024-12-27 06:10:03.967Z321.671° NNW22.221°2024-12-27 06:14:03.967Z5.39° NNE
7 mins2024-12-27 11:37:03.967Z3.143° NNE2024-12-27 11:40:03.967Z36.482° NE18.791°2024-12-27 11:44:03.967Z80.164° E
11 mins2024-12-27 13:23:03.967Z328.352° NNW2024-12-27 13:28:03.967Z314.183° NW44.98°2024-12-27 13:34:03.967Z150.537° SSE
|